Home > Weather > Narva > Past weeks

Flag for Estonia Past Weather in Narva, Estonia — Yesterday and Last 2 Weeks

Now
67 °F

Mild.


Feels Like: 67 °F
Forecast: 60 / 80 °F
Wind: 1 mph from East

Location: Narva

Current Time: Jul 1, 2016 at 10:05:56 PM

Latest Report: Jul 1, 2016 at 9:00 PM


Visibility: N/A

Pressure: 30.00 "Hg

Humidity: 88%

Dew Point: 63 °F

Location of NarvaLocation

Past Weather in Narva — Graph

°F

Narva Temperature Yesterday

Maximum temperature yesterday: 78 °F (at 2:00 PM)
Minimum temperature yesterday: 54 °F (at 4:00 AM)
Average temperature yesterday: 67 °F

High & Low Weather Summary for the Past Weeks

 TemperatureHumidityPressure
High85 °F (Jun 26, 1:00 PM)100% (Jul 1, 6:00 AM)30.28 "Hg (Jul 1, 6:00 AM)
Low50 °F (Jul 1, 4:00 AM)50% (Jun 23, 4:00 PM)29.44 "Hg (Jun 18, 4:00 AM)
Average65 °F82%29.96 "Hg
* Reported Jun 16 8:00 PM — Jul 1 8:00 PM, Narva, Weather by CustomWeather, © 2016

Note: Actual official high and low records may vary slightly from our data, if they occured in-between our weather recording intervals... More about our weather records

Advertising

Narva Weather History for the Previous 24 Hours

Scroll right to see more
 ConditionsComfort  
Time TempWeatherWind HumidityBarometerVisibility
8:00 PM
Fri, Jul 1
66 °FMild.2 mph87%30.00 "HgN/A
7:00 PM66 °FMild.2 mph85%30.00 "HgN/A
6:00 PM65 °FMild.2 mph88%30.01 "HgN/A
5:00 PM65 °FMild.1 mph88%30.01 "HgN/A
4:00 PM64 °FMild.2 mph90%30.02 "HgN/A
3:00 PM69 °FMild.No wind75%30.02 "HgN/A
2:00 PM67 °FMild.1 mph84%30.03 "HgN/A
1:00 PM69 °FMild.2 mph82%30.01 "HgN/A
12:00 PM70 °FMild.1 mph72%30.02 "HgN/A
11:00 AM69 °FMild.2 mph76%30.01 "HgN/A
10:00 AM69 °FMild.2 mph73%30.01 "HgN/A
9:00 AM68 °FMild.2 mph79%30.01 "HgN/A
8:00 AM67 °FMild.1 mph78%30.01 "HgN/A
7:00 AM64 °FMild.1 mph93%30.01 "HgN/A
6:00 AM56 °FCool.1 mph100%30.01 "HgN/A
5:00 AM54 °FCool.1 mph99%30.00 "HgN/A
4:00 AM50 °FCool.1 mph99%30.00 "HgN/A
3:00 AM51 °FCool.1 mph99%29.99 "HgN/A
2:00 AM54 °FCool.1 mph99%29.99 "HgN/A
1:00 AM59 °FCool.1 mph98%29.99 "HgN/A
12:00 AM62 °FCool.3 mph96%29.98 "HgN/A
11:00 PM
Thu, Jun 30
62 °FCool.2 mph88%29.97 "HgN/A
10:00 PM65 °FMild.2 mph86%29.95 "HgN/A
Weather by CustomWeather, © 2016

See weather overviewHow to use our weather pages